Time,TemperatureF,DewpointF,PressureIn,WindDirection,WindDirectionDegrees,WindSpeedMPH,WindSpeedGustMPH,Humidity,HourlyPrecipIn,Conditions,Clouds,dailyrainin,SoftwareType,DateUTC
2013-02-12 00:00:00,20.0,15.7,30.11,WNW,300,0.0,0.0,83,0.00,,,0.00,Wunderground v.1.15,2013-02-12 06:00:00,
2013-02-12 00:07:00,20.2,15.9,30.11,WNW,300,0.0,0.0,83,0.00,,,0.00,Wunderground v.1.15,2013-02-12 06:07:00,
2013-02-12 00:12:00,20.3,16.0,30.11,WNW,300,0.0,0.0,83,0.00,,,0.00,Wunderground v.1.15,2013-02-12 06:12:00,
2013-02-12 00:17:00,20.3,16.2,30.11,WNW,300,0.0,0.0,84,0.00,,,0.00,Wunderground v.1.15,2013-02-12 06:17:00,
2013-02-12 00:22:00,20.4,16.3,30.11,WNW,300,0.0,0.0,84,0.00,,,0.00,Wunderground v.1.15,2013-02-12 06:22:00,
2013-02-12 00:28:00,20.5,16.4,30.11,WNW,300,0.0,0.0,84,0.00,,,0.00,Wunderground v.1.15,2013-02-12 06:28:00,
2013-02-12 00:33:00,20.6,16.5,30.11,WNW,300,0.0,0.0,84,0.00,,,0.00,Wunderground v.1.15,2013-02-12 06:33:00,
2013-02-12 00:38:00,20.7,16.9,30.11,WNW,300,2.0,2.0,85,0.00,,,0.00,Wunderground v.1.15,2013-02-12 06:38:00,
2013-02-12 00:43:00,20.9,17.1,30.11,WNW,300,2.0,2.0,85,0.00,,,0.00,Wunderground v.1.15,2013-02-12 06:43:00,
2013-02-12 00:49:00,21.1,17.3,30.11,WNW,300,1.0,3.0,85,0.00,,,0.00,Wunderground v.1.15,2013-02-12 06:49:00,
2013-02-12 00:54:00,21.2,17.4,30.11,WNW,300,2.0,2.0,85,0.00,,,0.00,Wunderground v.1.15,2013-02-12 06:54:00,
2013-02-12 01:00:00,21.3,17.5,30.11,WNW,300,2.0,2.0,85,0.00,,,0.00,Wunderground v.1.15,2013-02-12 07:00:00,
2013-02-12 01:05:00,21.6,18.1,30.11,WNW,300,3.0,5.0,86,0.00,,,0.00,Wunderground v.1.15,2013-02-12 07:05:00,
2013-02-12 01:11:00,21.8,18.3,30.11,WNW,300,1.0,3.0,86,0.00,,,0.00,Wunderground v.1.15,2013-02-12 07:11:00,
2013-02-12 01:16:00,21.9,18.4,30.11,WNW,300,2.0,4.0,86,0.00,,,0.00,Wunderground v.1.15,2013-02-12 07:16:00,
2013-02-12 01:22:00,22.0,18.5,30.11,WNW,300,4.0,4.0,86,0.00,,,0.00,Wunderground v.1.15,2013-02-12 07:22:00,
2013-02-12 01:27:00,22.2,18.7,30.10,WNW,298,5.0,5.0,86,0.00,,,0.00,Wunderground v.1.15,2013-02-12 07:27:00,
2013-02-12 01:33:00,22.4,18.8,30.10,WNW,298,6.0,6.0,86,0.00,,,0.00,Wunderground v.1.15,2013-02-12 07:33:00,
2013-02-12 01:38:00,22.5,18.9,30.11,WNW,292,3.0,8.0,86,0.00,,,0.00,Wunderground v.1.15,2013-02-12 07:38:00,
2013-02-12 01:44:00,22.7,19.1,30.10,WNW,292,7.0,7.0,86,0.00,,,0.00,Wunderground v.1.15,2013-02-12 07:44:00,
2013-02-12 01:49:00,22.8,19.2,30.10,WNW,291,4.0,7.0,86,0.00,,,0.00,Wunderground v.1.15,2013-02-12 07:49:00,
2013-02-12 01:54:00,22.9,19.3,30.10,WNW,288,3.0,7.0,86,0.00,,,0.00,Wunderground v.1.15,2013-02-12 07:54:00,
2013-02-12 01:59:00,22.9,19.3,30.10,WNW,284,6.0,7.0,86,0.00,,,0.00,Wunderground v.1.15,2013-02-12 07:59:00,
2013-02-12 02:04:00,22.8,19.0,30.10,West,273,6.0,9.0,85,0.00,,,0.00,Wunderground v.1.15,2013-02-12 08:04:00,
2013-02-12 02:09:00,22.5,18.4,30.10,West,268,9.0,11.0,84,0.00,,,0.00,Wunderground v.1.15,2013-02-12 08:09:00,
2013-02-12 02:14:00,22.1,18.0,30.10,West,265,6.0,10.0,84,0.00,,,0.00,Wunderground v.1.15,2013-02-12 08:14:00,
2013-02-12 02:20:00,21.9,17.8,30.10,West,261,5.0,11.0,84,0.00,,,0.00,Wunderground v.1.15,2013-02-12 08:20:00,
2013-02-12 02:25:00,21.6,17.5,30.10,West,261,8.0,9.0,84,0.00,,,0.00,Wunderground v.1.15,2013-02-12 08:25:00,
2013-02-12 02:30:00,21.3,16.9,30.10,West,261,6.0,11.0,83,0.00,,,0.00,Wunderground v.1.15,2013-02-12 08:30:00,
2013-02-12 02:35:00,21.1,16.7,30.10,West,261,8.0,9.0,83,0.00,,,0.00,Wunderground v.1.15,2013-02-12 08:35:00,
2013-02-12 02:40:00,20.9,16.8,30.10,West,261,7.0,9.0,84,0.00,,,0.00,Wunderground v.1.15,2013-02-12 08:40:00,
2013-02-12 02:45:00,20.8,16.7,30.09,West,259,7.0,11.0,84,0.00,,,0.00,Wunderground v.1.15,2013-02-12 08:45:00,
2013-02-12 02:50:00,20.5,16.4,30.09,West,259,6.0,11.0,84,0.00,,,0.00,Wunderground v.1.15,2013-02-12 08:50:00,
2013-02-12 02:55:00,20.0,15.9,30.09,West,259,2.0,7.0,84,0.00,,,0.00,Wunderground v.1.15,2013-02-12 08:55:00,
2013-02-12 03:00:00,19.4,15.4,30.09,West,259,3.0,7.0,84,0.00,,,0.00,Wunderground v.1.15,2013-02-12 09:00:00,
2013-02-12 03:05:00,18.9,14.9,30.09,West,259,4.0,6.0,84,0.00,,,0.00,Wunderground v.1.15,2013-02-12 09:05:00,
2013-02-12 03:10:00,18.6,14.8,30.08,West,259,4.0,6.0,85,0.00,,,0.00,Wunderground v.1.15,2013-02-12 09:10:00,
2013-02-12 03:15:00,18.2,14.4,30.08,West,259,4.0,6.0,85,0.00,,,0.00,Wunderground v.1.15,2013-02-12 09:15:00,
2013-02-12 03:20:00,18.1,14.6,30.08,West,259,4.0,7.0,86,0.00,,,0.00,Wunderground v.1.15,2013-02-12 09:20:00,
2013-02-12 03:25:00,18.0,14.5,30.08,West,259,3.0,6.0,86,0.00,,,0.00,Wunderground v.1.15,2013-02-12 09:25:00,
2013-02-12 03:30:00,17.9,14.4,30.07,West,259,1.0,6.0,86,0.00,,,0.00,Wunderground v.1.15,2013-02-12 09:30:00,
2013-02-12 03:35:00,17.6,14.1,30.07,West,259,1.0,4.0,86,0.00,,,0.00,Wunderground v.1.15,2013-02-12 09:35:00,
2013-02-12 03:40:00,17.3,13.8,30.07,West,259,3.0,5.0,86,0.00,,,0.00,Wunderground v.1.15,2013-02-12 09:40:00,
2013-02-12 03:45:00,17.3,13.8,30.07,West,259,3.0,5.0,86,0.00,,,0.00,Wunderground v.1.15,2013-02-12 09:45:00,
2013-02-12 03:50:00,17.2,13.7,30.06,West,259,2.0,6.0,86,0.00,,,0.00,Wunderground v.1.15,2013-02-12 09:50:00,
2013-02-12 03:55:00,17.0,13.5,30.06,West,259,2.0,3.0,86,0.00,,,0.00,Wunderground v.1.15,2013-02-12 09:55:00,
2013-02-12 04:00:00,16.8,13.6,30.06,West,259,2.0,4.0,87,0.00,,,0.00,Wunderground v.1.15,2013-02-12 10:00:00,
2013-02-12 04:05:00,16.7,13.2,30.06,West,259,2.0,4.0,86,0.00,,,0.00,Wunderground v.1.15,2013-02-12 10:05:00,
2013-02-12 04:10:00,16.7,13.5,30.06,West,259,1.0,4.0,87,0.00,,,0.00,Wunderground v.1.15,2013-02-12 10:10:00,
2013-02-12 04:15:00,16.5,13.0,30.05,West,259,2.0,5.0,86,0.00,,,0.00,Wunderground v.1.15,2013-02-12 10:15:00,
2013-02-12 04:20:00,16.2,12.7,30.05,West,259,2.0,5.0,86,0.00,,,0.00,Wunderground v.1.15,2013-02-12 10:20:00,
2013-02-12 04:25:00,15.9,12.5,30.05,West,259,2.0,3.0,86,0.00,,,0.00,Wunderground v.1.15,2013-02-12 10:25:00,
2013-02-12 04:30:00,15.3,11.9,30.05,West,259,0.0,3.0,86,0.00,,,0.00,Wunderground v.1.15,2013-02-12 10:30:00,
2013-02-12 04:35:00,15.0,11.6,30.05,West,259,2.0,3.0,86,0.00,,,0.00,Wunderground v.1.15,2013-02-12 10:35:00,
2013-02-12 04:40:00,15.9,12.7,30.05,West,259,3.0,5.0,87,0.00,,,0.00,Wunderground v.1.15,2013-02-12 10:40:00,
2013-02-12 04:45:00,16.3,13.1,30.05,West,259,4.0,4.0,87,0.00,,,0.00,Wunderground v.1.15,2013-02-12 10:45:00,
2013-02-12 04:50:00,16.4,13.2,30.05,West,259,3.0,5.0,87,0.00,,,0.00,Wunderground v.1.15,2013-02-12 10:50:00,
2013-02-12 04:55:00,16.7,13.5,30.04,West,259,2.0,5.0,87,0.00,,,0.00,Wunderground v.1.15,2013-02-12 10:55:00,
2013-02-12 05:00:00,16.7,13.5,30.04,West,259,3.0,5.0,87,0.00,,,0.00,Wunderground v.1.15,2013-02-12 11:00:00,
2013-02-12 05:05:00,16.7,13.5,30.04,West,259,3.0,4.0,87,0.00,,,0.00,Wunderground v.1.15,2013-02-12 11:05:00,
2013-02-12 05:10:00,16.7,13.5,30.04,West,259,0.0,4.0,87,0.00,,,0.00,Wunderground v.1.15,2013-02-12 11:10:00,
2013-02-12 05:16:00,16.6,13.4,30.03,West,259,1.0,3.0,87,0.00,,,0.00,Wunderground v.1.15,2013-02-12 11:16:00,
2013-02-12 05:21:00,16.7,13.5,30.03,West,259,0.0,3.0,87,0.00,,,0.00,Wunderground v.1.15,2013-02-12 11:21:00,
2013-02-12 05:26:00,16.6,13.4,30.03,West,259,1.0,3.0,87,0.00,,,0.00,Wunderground v.1.15,2013-02-12 11:26:00,
2013-02-12 05:31:00,16.6,13.4,30.03,West,259,4.0,4.0,87,0.00,,,0.00,Wunderground v.1.15,2013-02-12 11:31:00,
2013-02-12 05:36:00,16.8,13.6,30.02,West,259,3.0,7.0,87,0.00,,,0.00,Wunderground v.1.15,2013-02-12 11:36:00,
2013-02-12 05:41:00,17.2,14.0,30.02,West,259,4.0,8.0,87,0.00,,,0.00,Wunderground v.1.15,2013-02-12 11:41:00,
2013-02-12 05:46:00,17.2,14.0,30.02,West,259,6.0,7.0,87,0.00,,,0.00,Wunderground v.1.15,2013-02-12 11:46:00,
2013-02-12 05:51:00,17.1,13.9,30.02,West,259,4.0,8.0,87,0.00,,,0.00,Wunderground v.1.15,2013-02-12 11:51:00,
2013-02-12 05:56:00,17.0,13.8,30.02,West,259,6.0,9.0,87,0.00,,,0.00,Wunderground v.1.15,2013-02-12 11:56:00,
2013-02-12 06:01:00,16.9,13.7,30.02,West,259,6.0,9.0,87,0.00,,,0.00,Wunderground v.1.15,2013-02-12 12:01:00,
2013-02-12 06:06:00,17.0,13.8,30.02,West,259,3.0,8.0,87,0.00,,,0.00,Wunderground v.1.15,2013-02-12 12:06:00,
2013-02-12 06:11:00,17.0,13.5,30.02,West,259,6.0,8.0,86,0.00,,,0.00,Wunderground v.1.15,2013-02-12 12:11:00,
2013-02-12 06:16:00,16.8,13.3,30.02,West,259,8.0,10.0,86,0.00,,,0.00,Wunderground v.1.15,2013-02-12 12:16:00,
2013-02-12 06:21:00,17.0,13.5,30.02,West,259,7.0,10.0,86,0.00,,,0.00,Wunderground v.1.15,2013-02-12 12:21:00,
2013-02-12 06:26:00,17.1,13.6,30.02,WSW,251,7.0,11.0,86,0.00,,,0.00,Wunderground v.1.15,2013-02-12 12:26:00,
2013-02-12 06:31:00,17.4,13.9,30.02,SW,217,9.0,9.0,86,0.00,,,0.00,Wunderground v.1.15,2013-02-12 12:31:00,
2013-02-12 06:36:00,17.7,14.2,30.02,SW,216,7.0,13.0,86,0.00,,,0.00,Wunderground v.1.15,2013-02-12 12:36:00,
2013-02-12 06:41:00,17.4,13.9,30.02,SW,215,5.0,9.0,86,0.00,,,0.00,Wunderground v.1.15,2013-02-12 12:41:00,
2013-02-12 06:46:00,17.0,13.3,30.01,SW,216,8.0,10.0,85,0.00,,,0.00,Wunderground v.1.15,2013-02-12 12:46:00,
2013-02-12 06:51:00,16.9,13.4,30.02,SW,216,7.0,7.0,86,0.00,,,0.00,Wunderground v.1.15,2013-02-12 12:51:00,
2013-02-12 06:56:00,17.3,13.8,30.02,SW,215,7.0,13.0,86,0.00,,,0.00,Wunderground v.1.15,2013-02-12 12:56:00,
2013-02-12 07:01:00,17.5,14.0,30.02,SW,215,8.0,8.0,86,0.00,,,0.00,Wunderground v.1.15,2013-02-12 13:01:00,
2013-02-12 07:06:00,17.4,13.9,30.02,SW,214,6.0,10.0,86,0.00,,,0.00,Wunderground v.1.15,2013-02-12 13:06:00,
2013-02-12 07:11:00,17.3,13.8,30.02,SW,215,6.0,7.0,86,0.00,,,0.00,Wunderground v.1.15,2013-02-12 13:11:00,
2013-02-12 07:16:00,17.2,13.7,30.02,SW,215,7.0,10.0,86,0.00,,,0.00,Wunderground v.1.15,2013-02-12 13:16:00,
2013-02-12 07:21:00,17.2,13.7,30.02,SW,214,7.0,7.0,86,0.00,,,0.00,Wunderground v.1.15,2013-02-12 13:21:00,
2013-02-12 07:26:00,17.3,13.8,30.02,SW,214,8.0,11.0,86,0.00,,,0.00,Wunderground v.1.15,2013-02-12 13:26:00,
2013-02-12 07:31:00,17.3,13.8,30.02,SW,215,6.0,8.0,86,0.00,,,0.00,Wunderground v.1.15,2013-02-12 13:31:00,
2013-02-12 07:36:00,17.3,13.8,30.02,SW,215,6.0,10.0,86,0.00,,,0.00,Wunderground v.1.15,2013-02-12 13:36:00,
2013-02-12 07:41:00,17.4,13.9,30.03,SW,215,5.0,7.0,86,0.00,,,0.00,Wunderground v.1.15,2013-02-12 13:41:00,
2013-02-12 07:46:00,17.3,13.6,30.03,SW,215,5.0,8.0,85,0.00,,,0.00,Wunderground v.1.15,2013-02-12 13:46:00,
2013-02-12 07:51:00,17.6,14.1,30.03,SW,215,6.0,8.0,86,0.00,,,0.00,Wunderground v.1.15,2013-02-12 13:51:00,
2013-02-12 07:56:00,18.0,14.5,30.03,SW,215,7.0,11.0,86,0.00,,,0.00,Wunderground v.1.15,2013-02-12 13:56:00,
2013-02-12 08:01:00,18.5,15.0,30.03,SW,214,7.0,8.0,86,0.00,,,0.00,Wunderground v.1.15,2013-02-12 14:01:00,
2013-02-12 08:06:00,19.0,15.5,30.03,SW,215,8.0,13.0,86,0.00,,,0.00,Wunderground v.1.15,2013-02-12 14:06:00,
2013-02-12 08:11:00,19.1,15.6,30.03,SW,216,7.0,10.0,86,0.00,,,0.00,Wunderground v.1.15,2013-02-12 14:11:00,
2013-02-12 08:16:00,19.3,15.5,30.03,SW,218,10.0,14.0,85,0.00,,,0.00,Wunderground v.1.15,2013-02-12 14:16:00,
2013-02-12 08:21:00,19.5,15.7,30.03,SW,218,8.0,10.0,85,0.00,,,0.00,Wunderground v.1.15,2013-02-12 14:21:00,
2013-02-12 08:26:00,19.4,15.6,30.03,SW,221,9.0,12.0,85,0.00,,,0.00,Wunderground v.1.15,2013-02-12 14:26:00,
2013-02-12 08:32:00,19.7,15.9,30.03,SW,221,8.0,10.0,85,0.00,,,0.00,Wunderground v.1.15,2013-02-12 14:32:00,
2013-02-12 08:37:00,19.8,16.0,30.03,SW,221,6.0,13.0,85,0.00,,,0.00,Wunderground v.1.15,2013-02-12 14:37:00,
2013-02-12 08:42:00,20.2,16.4,30.02,SW,220,8.0,8.0,85,0.00,,,0.00,Wunderground v.1.15,2013-02-12 14:42:00,
2013-02-12 08:47:00,20.6,16.8,30.02,SW,221,7.0,12.0,85,0.00,,,0.00,Wunderground v.1.15,2013-02-12 14:47:00,
2013-02-12 08:52:00,21.0,17.2,30.02,SW,221,10.0,10.0,85,0.00,,,0.00,Wunderground v.1.15,2013-02-12 14:52:00,
2013-02-12 08:57:00,21.4,17.3,30.02,SW,226,9.0,12.0,84,0.00,,,0.00,Wunderground v.1.15,2013-02-12 14:57:00,
2013-02-12 09:02:00,21.5,17.4,30.01,SW,222,9.0,12.0,84,0.00,,,0.00,Wunderground v.1.15,2013-02-12 15:02:00,
2013-02-12 09:07:00,21.7,17.3,30.02,SW,225,8.0,12.0,83,0.00,,,0.00,Wunderground v.1.15,2013-02-12 15:07:00,
2013-02-12 09:12:00,22.2,17.8,30.01,SW,224,8.0,11.0,83,0.00,,,0.00,Wunderground v.1.15,2013-02-12 15:12:00,
2013-02-12 09:17:00,22.5,18.1,30.01,SW,227,9.0,13.0,83,0.00,,,0.00,Wunderground v.1.15,2013-02-12 15:17:00,
2013-02-12 09:22:00,22.8,18.1,30.00,SW,219,13.0,13.0,82,0.00,,,0.00,Wunderground v.1.15,2013-02-12 15:22:00,
2013-02-12 09:27:00,23.1,18.4,30.00,SW,223,6.0,14.0,82,0.00,,,0.00,Wunderground v.1.15,2013-02-12 15:27:00,
2013-02-12 09:32:00,23.4,18.4,30.00,SW,223,7.0,11.0,81,0.00,,,0.00,Wunderground v.1.15,2013-02-12 15:32:00,
2013-02-12 09:37:00,23.1,18.1,30.00,SW,229,5.0,11.0,81,0.00,,,0.00,Wunderground v.1.15,2013-02-12 15:37:00,
2013-02-12 09:42:00,23.3,18.3,30.00,SW,229,6.0,10.0,81,0.00,,,0.00,Wunderground v.1.15,2013-02-12 15:42:00,
2013-02-12 09:47:00,23.4,18.4,30.00,SW,232,7.0,11.0,81,0.00,,,0.00,Wunderground v.1.15,2013-02-12 15:47:00,
2013-02-12 09:52:00,23.9,18.6,30.00,SW,234,9.0,10.0,80,0.00,,,0.00,Wunderground v.1.15,2013-02-12 15:52:00,
2013-02-12 09:57:00,24.2,18.6,30.00,WSW,241,8.0,11.0,79,0.00,,,0.00,Wunderground v.1.15,2013-02-12 15:57:00,
2013-02-12 10:02:00,24.6,19.0,30.00,WSW,243,10.0,10.0,79,0.00,,,0.00,Wunderground v.1.15,2013-02-12 16:02:00,
2013-02-12 10:07:00,24.7,18.8,30.00,WSW,242,9.0,13.0,78,0.00,,,0.00,Wunderground v.1.15,2013-02-12 16:07:00,
2013-02-12 10:12:00,24.9,19.0,30.00,WSW,242,6.0,11.0,78,0.00,,,0.00,Wunderground v.1.15,2013-02-12 16:12:00,
2013-02-12 10:17:00,25.4,19.5,30.00,WSW,245,12.0,12.0,78,0.00,,,0.00,Wunderground v.1.15,2013-02-12 16:17:00,
2013-02-12 10:22:00,25.4,19.2,29.99,SW,235,7.0,11.0,77,0.00,,,0.00,Wunderground v.1.15,2013-02-12 16:22:00,
2013-02-12 10:27:00,25.6,19.4,30.00,SW,236,11.0,12.0,77,0.00,,,0.00,Wunderground v.1.15,2013-02-12 16:27:00,
2013-02-12 10:32:00,25.9,20.0,30.00,WSW,246,9.0,9.0,78,0.00,,,0.00,Wunderground v.1.15,2013-02-12 16:32:00,
2013-02-12 10:37:00,26.2,20.0,29.99,WSW,238,5.0,13.0,77,0.00,,,0.00,Wunderground v.1.15,2013-02-12 16:37:00,
2013-02-12 10:42:00,26.5,20.0,29.99,WSW,254,12.0,12.0,76,0.00,,,0.00,Wunderground v.1.15,2013-02-12 16:42:00,
2013-02-12 10:47:00,26.9,20.7,29.98,WSW,246,10.0,13.0,77,0.00,,,0.00,Wunderground v.1.15,2013-02-12 16:47:00,
2013-02-12 10:52:00,27.0,20.1,29.98,WSW,251,7.0,12.0,75,0.00,,,0.00,Wunderground v.1.15,2013-02-12 16:52:00,
2013-02-12 10:57:00,26.8,20.2,29.98,SW,232,8.0,13.0,76,0.00,,,0.00,Wunderground v.1.15,2013-02-12 16:57:00,
2013-02-12 11:03:00,27.1,20.5,29.98,WSW,249,9.0,13.0,76,0.00,,,0.00,Wunderground v.1.15,2013-02-12 17:03:00,
2013-02-12 11:08:00,27.5,20.9,29.98,WSW,245,7.0,13.0,76,0.00,,,0.00,Wunderground v.1.15,2013-02-12 17:08:00,
2013-02-12 11:13:00,27.6,20.7,29.98,WSW,238,7.0,10.0,75,0.00,,,0.00,Wunderground v.1.15,2013-02-12 17:13:00,
2013-02-12 11:18:00,27.7,20.8,29.97,SW,235,9.0,11.0,75,0.00,,,0.00,Wunderground v.1.15,2013-02-12 17:18:00,
2013-02-12 11:23:00,27.9,21.3,29.97,WSW,242,10.0,11.0,76,0.00,,,0.00,Wunderground v.1.15,2013-02-12 17:23:00,
2013-02-12 11:28:00,28.3,21.4,29.97,WSW,245,10.0,12.0,75,0.00,,,0.00,Wunderground v.1.15,2013-02-12 17:28:00,
2013-02-12 11:33:00,28.4,21.2,29.97,WSW,246,9.0,11.0,74,0.00,,,0.00,Wunderground v.1.15,2013-02-12 17:33:00,
2013-02-12 11:38:00,28.7,21.8,29.97,WSW,250,8.0,12.0,75,0.00,,,0.00,Wunderground v.1.15,2013-02-12 17:38:00,
2013-02-12 11:43:00,28.8,21.9,29.97,WSW,252,6.0,13.0,75,0.00,,,0.00,Wunderground v.1.15,2013-02-12 17:43:00,
2013-02-12 11:48:00,28.9,22.0,29.97,WSW,250,7.0,13.0,75,0.00,,,0.00,Wunderground v.1.15,2013-02-12 17:48:00,
2013-02-12 11:53:00,29.0,22.1,29.97,WSW,253,8.0,10.0,75,0.00,,,0.00,Wunderground v.1.15,2013-02-12 17:53:00,
2013-02-12 11:58:00,29.2,22.3,29.97,WSW,250,8.0,12.0,75,0.00,,,0.00,Wunderground v.1.15,2013-02-12 17:58:00,
2013-02-12 12:03:00,29.7,23.4,29.96,WSW,257,7.0,10.0,77,0.00,,,0.00,Wunderground v.1.15,2013-02-12 18:03:00,
2013-02-12 12:08:00,29.7,23.1,29.96,WSW,250,7.0,12.0,76,0.00,,,0.00,Wunderground v.1.15,2013-02-12 18:08:00,
2013-02-12 12:13:00,29.9,22.9,29.96,WSW,254,9.0,12.0,75,0.00,,,0.00,Wunderground v.1.15,2013-02-12 18:13:00,
2013-02-12 12:18:00,30.1,23.4,29.96,WSW,242,9.0,14.0,76,0.00,,,0.00,Wunderground v.1.15,2013-02-12 18:18:00,
2013-02-12 12:23:00,30.6,23.6,29.96,WSW,249,8.0,12.0,75,0.00,,,0.00,Wunderground v.1.15,2013-02-12 18:23:00,
2013-02-12 12:28:00,30.8,23.5,29.96,WSW,246,6.0,13.0,74,0.00,,,0.00,Wunderground v.1.15,2013-02-12 18:28:00,
2013-02-12 12:33:00,31.0,24.0,29.96,SW,234,9.0,11.0,75,0.00,,,0.00,Wunderground v.1.15,2013-02-12 18:33:00,
2013-02-12 12:38:00,31.2,24.2,29.96,SW,233,9.0,13.0,75,0.00,,,0.00,Wunderground v.1.15,2013-02-12 18:38:00,
2013-02-12 12:43:00,31.4,24.7,29.96,SW,233,7.0,13.0,76,0.00,,,0.00,Wunderground v.1.15,2013-02-12 18:43:00,
2013-02-12 12:48:00,31.5,25.4,29.95,WSW,242,9.0,13.0,78,0.00,,,0.00,Wunderground v.1.15,2013-02-12 18:48:00,
2013-02-12 12:53:00,31.7,25.3,29.94,WSW,242,7.0,14.0,77,0.00,,,0.00,Wunderground v.1.15,2013-02-12 18:53:00,
2013-02-12 12:58:00,32.1,26.0,29.94,SW,235,7.0,14.0,78,0.00,,,0.00,Wunderground v.1.15,2013-02-12 18:58:00,
2013-02-12 13:03:00,32.3,25.6,29.94,WSW,237,11.0,15.0,76,0.00,,,0.00,Wunderground v.1.15,2013-02-12 19:03:00,
2013-02-12 13:08:00,32.4,25.4,29.94,SW,234,12.0,15.0,75,0.00,,,0.00,Wunderground v.1.15,2013-02-12 19:08:00,
2013-02-12 13:13:00,32.7,26.3,29.94,WSW,254,13.0,16.0,77,0.00,,,0.00,Wunderground v.1.15,2013-02-12 19:13:00,
2013-02-12 13:18:00,32.6,25.6,29.94,WSW,244,14.0,16.0,75,0.00,,,0.00,Wunderground v.1.15,2013-02-12 19:18:00,
2013-02-12 13:24:00,32.7,25.6,29.94,WSW,240,12.0,13.0,75,0.00,,,0.00,Wunderground v.1.15,2013-02-12 19:24:00,
2013-02-12 13:29:00,32.8,25.4,29.94,WSW,241,13.0,15.0,74,0.00,,,0.00,Wunderground v.1.15,2013-02-12 19:29:00,
2013-02-12 13:34:00,33.1,26.4,29.94,SW,225,10.0,14.0,76,0.00,,,0.00,Wunderground v.1.15,2013-02-12 19:34:00,
2013-02-12 13:39:00,33.5,26.4,29.94,SW,230,5.0,14.0,75,0.00,,,0.00,Wunderground v.1.15,2013-02-12 19:39:00,
2013-02-12 13:44:00,33.5,26.1,29.94,WSW,238,8.0,13.0,74,0.00,,,0.00,Wunderground v.1.15,2013-02-12 19:44:00,
2013-02-12 13:49:00,33.5,26.1,29.94,SW,232,11.0,15.0,74,0.00,,,0.00,Wunderground v.1.15,2013-02-12 19:49:00,
2013-02-12 13:54:00,33.7,26.3,29.94,SW,235,9.0,14.0,74,0.00,,,0.00,Wunderground v.1.15,2013-02-12 19:54:00,
2013-02-12 13:59:00,33.7,26.3,29.94,WSW,242,11.0,14.0,74,0.00,,,0.00,Wunderground v.1.15,2013-02-12 19:59:00,
2013-02-12 14:04:00,33.9,26.5,29.93,SW,234,14.0,14.0,74,0.00,,,0.00,Wunderground v.1.15,2013-02-12 20:04:00,
2013-02-12 14:09:00,34.4,26.6,29.93,WSW,242,13.0,14.0,73,0.00,,,0.00,Wunderground v.1.15,2013-02-12 20:09:00,
2013-02-12 14:14:00,34.4,26.3,29.92,WSW,240,12.0,14.0,72,0.00,,,0.00,Wunderground v.1.15,2013-02-12 20:14:00,
2013-02-12 14:19:00,34.5,26.7,29.92,SW,217,9.0,16.0,73,0.00,,,0.00,Wunderground v.1.15,2013-02-12 20:19:00,
2013-02-12 14:24:00,34.8,26.7,29.92,SW,236,12.0,12.0,72,0.00,,,0.00,Wunderground v.1.15,2013-02-12 20:24:00,
2013-02-12 14:29:00,34.9,26.1,29.92,SW,234,7.0,13.0,70,0.00,,,0.00,Wunderground v.1.15,2013-02-12 20:29:00,
2013-02-12 14:34:00,35.4,27.3,29.91,WSW,243,12.0,14.0,72,0.00,,,0.00,Wunderground v.1.15,2013-02-12 20:34:00,
2013-02-12 14:39:00,35.7,27.6,29.91,SW,232,10.0,14.0,72,0.00,,,0.00,Wunderground v.1.15,2013-02-12 20:39:00,
2013-02-12 14:44:00,35.6,26.8,29.91,SW,230,8.0,15.0,70,0.00,,,0.00,Wunderground v.1.15,2013-02-12 20:44:00,
2013-02-12 14:49:00,35.8,27.7,29.91,SW,229,13.0,15.0,72,0.00,,,0.00,Wunderground v.1.15,2013-02-12 20:49:00,
2013-02-12 14:54:00,35.6,27.1,29.91,WSW,237,11.0,15.0,71,0.00,,,0.00,Wunderground v.1.15,2013-02-12 20:54:00,
2013-02-12 14:59:00,35.5,27.0,29.91,WSW,246,8.0,15.0,71,0.00,,,0.00,Wunderground v.1.15,2013-02-12 20:59:00,
2013-02-12 15:04:00,35.9,27.7,29.91,WSW,244,9.0,11.0,72,0.00,,,0.00,Wunderground v.1.15,2013-02-12 21:04:00,
2013-02-12 15:09:00,35.8,27.0,29.91,WSW,240,10.0,15.0,70,0.00,,,0.00,Wunderground v.1.15,2013-02-12 21:09:00,
2013-02-12 15:14:00,35.8,27.3,29.90,WSW,248,9.0,13.0,71,0.00,,,0.00,Wunderground v.1.15,2013-02-12 21:14:00,
2013-02-12 15:19:00,35.8,26.6,29.90,WSW,244,11.0,16.0,69,0.00,,,0.00,Wunderground v.1.15,2013-02-12 21:19:00,
2013-02-12 15:24:00,35.9,27.4,29.90,SW,235,10.0,14.0,71,0.00,,,0.00,Wunderground v.1.15,2013-02-12 21:24:00,
2013-02-12 15:29:00,36.0,26.8,29.90,WSW,246,15.0,15.0,69,0.00,,,0.00,Wunderground v.1.15,2013-02-12 21:29:00,
2013-02-12 15:34:00,36.1,27.3,29.90,WSW,241,11.0,15.0,70,0.00,,,0.00,Wunderground v.1.15,2013-02-12 21:34:00,
2013-02-12 15:39:00,36.2,27.7,29.90,WSW,244,11.0,15.0,71,0.00,,,0.00,Wunderground v.1.15,2013-02-12 21:39:00,
2013-02-12 15:44:00,36.4,27.9,29.90,WSW,248,8.0,13.0,71,0.00,,,0.00,Wunderground v.1.15,2013-02-12 21:44:00,
2013-02-12 15:49:00,36.2,27.0,29.90,WSW,243,8.0,15.0,69,0.00,,,0.00,Wunderground v.1.15,2013-02-12 21:49:00,
2013-02-12 15:54:00,36.2,27.4,29.90,WSW,255,11.0,15.0,70,0.00,,,0.00,Wunderground v.1.15,2013-02-12 21:54:00,
2013-02-12 15:59:00,36.1,27.9,29.90,WSW,245,9.0,15.0,72,0.00,,,0.00,Wunderground v.1.15,2013-02-12 21:59:00,
2013-02-12 16:04:00,36.0,27.8,29.90,WSW,248,12.0,16.0,72,0.00,,,0.00,Wunderground v.1.15,2013-02-12 22:04:00,
2013-02-12 16:09:00,35.9,27.7,29.90,WSW,253,12.0,18.0,72,0.00,,,0.00,Wunderground v.1.15,2013-02-12 22:09:00,
2013-02-12 16:14:00,35.6,27.5,29.91,WSW,243,9.0,17.0,72,0.00,,,0.00,Wunderground v.1.15,2013-02-12 22:14:00,
2013-02-12 16:19:00,35.5,27.7,29.91,West,261,12.0,17.0,73,0.00,,,0.00,Wunderground v.1.15,2013-02-12 22:19:00,
2013-02-12 16:24:00,35.4,27.9,29.90,West,267,14.0,14.0,74,0.00,,,0.00,Wunderground v.1.15,2013-02-12 22:24:00,
2013-02-12 16:29:00,35.2,27.7,29.91,West,264,12.0,16.0,74,0.00,,,0.00,Wunderground v.1.15,2013-02-12 22:29:00,
2013-02-12 16:34:00,34.9,27.5,29.91,West,264,8.0,15.0,74,0.00,,,0.00,Wunderground v.1.15,2013-02-12 22:34:00,
2013-02-12 16:39:00,34.7,27.6,29.91,West,265,9.0,15.0,75,0.00,,,0.00,Wunderground v.1.15,2013-02-12 22:39:00,
2013-02-12 16:44:00,34.4,27.0,29.91,West,272,11.0,16.0,74,0.00,,,0.00,Wunderground v.1.15,2013-02-12 22:44:00,
2013-02-12 16:49:00,34.1,27.0,29.91,West,268,11.0,16.0,75,0.00,,,0.00,Wunderground v.1.15,2013-02-12 22:49:00,
2013-02-12 16:54:00,33.8,27.0,29.91,West,265,13.0,15.0,76,0.00,,,0.00,Wunderground v.1.15,2013-02-12 22:54:00,
2013-02-12 16:59:00,33.5,26.4,29.91,West,267,12.0,16.0,75,0.00,,,0.00,Wunderground v.1.15,2013-02-12 22:59:00,
2013-02-12 17:04:00,33.2,26.5,29.91,West,273,10.0,14.0,76,0.00,,,0.00,Wunderground v.1.15,2013-02-12 23:04:00,
2013-02-12 17:09:00,32.9,26.5,29.91,West,275,10.0,16.0,77,0.00,,,0.00,Wunderground v.1.15,2013-02-12 23:09:00,
2013-02-12 17:14:00,32.6,25.9,29.91,West,277,8.0,14.0,76,0.00,,,0.00,Wunderground v.1.15,2013-02-12 23:14:00,
2013-02-12 17:19:00,32.4,26.0,29.91,WNW,287,14.0,15.0,77,0.00,,,0.00,Wunderground v.1.15,2013-02-12 23:19:00,
2013-02-12 17:24:00,32.3,25.9,29.91,WNW,290,7.0,12.0,77,0.00,,,0.00,Wunderground v.1.15,2013-02-12 23:24:00,
2013-02-12 17:30:00,31.9,25.8,29.91,WNW,282,11.0,14.0,78,0.00,,,0.00,Wunderground v.1.15,2013-02-12 23:30:00,
2013-02-12 17:35:00,31.6,25.5,29.91,West,279,10.0,14.0,78,0.00,,,0.00,Wunderground v.1.15,2013-02-12 23:35:00,
2013-02-12 17:40:00,31.5,25.4,29.91,WNW,284,7.0,14.0,78,0.00,,,0.00,Wunderground v.1.15,2013-02-12 23:40:00,
2013-02-12 17:45:00,31.0,25.2,29.92,WNW,286,8.0,10.0,79,0.00,,,0.00,Wunderground v.1.15,2013-02-12 23:45:00,
2013-02-12 17:50:00,30.6,25.2,29.92,WNW,284,8.0,10.0,80,0.00,,,0.00,Wunderground v.1.15,2013-02-12 23:50:00,
2013-02-12 17:55:00,30.3,24.9,29.92,WNW,287,4.0,8.0,80,0.00,,,0.00,Wunderground v.1.15,2013-02-12 23:55:00,
2013-02-12 18:00:00,29.7,24.3,29.92,WNW,294,8.0,9.0,80,0.00,,,0.00,Wunderground v.1.15,2013-02-13 00:00:00,
2013-02-12 18:05:00,29.6,24.5,29.92,WNW,288,8.0,12.0,81,0.00,,,0.00,Wunderground v.1.15,2013-02-13 00:05:00,
2013-02-12 18:10:00,29.5,24.4,29.92,WNW,298,8.0,12.0,81,0.00,,,0.00,Wunderground v.1.15,2013-02-13 00:10:00,
2013-02-12 18:15:00,29.3,24.2,29.92,WNW,291,10.0,14.0,81,0.00,,,0.00,Wunderground v.1.15,2013-02-13 00:15:00,
2013-02-12 18:20:00,29.1,24.0,29.92,WNW,292,6.0,14.0,81,0.00,,,0.00,Wunderground v.1.15,2013-02-13 00:20:00,
2013-02-12 18:25:00,28.7,23.6,29.92,WNW,292,8.0,9.0,81,0.00,,,0.00,Wunderground v.1.15,2013-02-13 00:25:00,
2013-02-12 18:30:00,28.5,23.4,29.92,WNW,284,5.0,10.0,81,0.00,,,0.00,Wunderground v.1.15,2013-02-13 00:30:00,
2013-02-12 18:35:00,28.1,23.0,29.92,WNW,286,6.0,8.0,81,0.00,,,0.00,Wunderground v.1.15,2013-02-13 00:35:00,
2013-02-12 18:40:00,27.9,22.8,29.92,WNW,286,2.0,9.0,81,0.00,,,0.00,Wunderground v.1.15,2013-02-13 00:40:00,
2013-02-12 18:45:00,27.6,22.5,29.92,WNW,286,3.0,7.0,81,0.00,,,0.00,Wunderground v.1.15,2013-02-13 00:45:00,
2013-02-12 18:51:00,27.4,22.3,29.92,WNW,286,2.0,7.0,81,0.00,,,0.00,Wunderground v.1.15,2013-02-13 00:51:00,
2013-02-12 18:56:00,27.1,22.0,29.92,WNW,286,6.0,7.0,81,0.00,,,0.00,Wunderground v.1.15,2013-02-13 00:56:00,
2013-02-12 19:01:00,27.0,21.9,29.92,WNW,286,3.0,7.0,81,0.00,,,0.00,Wunderground v.1.15,2013-02-13 01:01:00,
2013-02-12 19:06:00,27.0,21.9,29.91,WNW,283,5.0,8.0,81,0.00,,,0.00,Wunderground v.1.15,2013-02-13 01:06:00,
2013-02-12 19:11:00,27.0,21.9,29.91,WNW,283,7.0,8.0,81,0.00,,,0.00,Wunderground v.1.15,2013-02-13 01:11:00,
2013-02-12 19:16:00,27.0,21.9,29.91,WNW,282,5.0,9.0,81,0.00,,,0.00,Wunderground v.1.15,2013-02-13 01:16:00,
2013-02-12 19:21:00,26.9,21.8,29.91,West,281,5.0,9.0,81,0.00,,,0.00,Wunderground v.1.15,2013-02-13 01:21:00,
2013-02-12 19:26:00,26.7,21.7,29.91,WNW,282,5.0,7.0,81,0.00,,,0.00,Wunderground v.1.15,2013-02-13 01:26:00,
2013-02-12 19:31:00,26.5,21.7,29.91,WNW,282,3.0,7.0,82,0.00,,,0.00,Wunderground v.1.15,2013-02-13 01:31:00,
2013-02-12 19:36:00,26.5,21.7,29.91,West,281,5.0,8.0,82,0.00,,,0.00,Wunderground v.1.15,2013-02-13 01:36:00,
2013-02-12 19:41:00,26.7,21.9,29.91,West,279,5.0,8.0,82,0.00,,,0.00,Wunderground v.1.15,2013-02-13 01:41:00,
2013-02-12 19:46:00,26.6,21.8,29.90,West,279,6.0,8.0,82,0.00,,,0.00,Wunderground v.1.15,2013-02-13 01:46:00,
2013-02-12 19:51:00,26.5,21.7,29.90,West,279,6.0,8.0,82,0.00,,,0.00,Wunderground v.1.15,2013-02-13 01:51:00,
2013-02-12 19:56:00,26.5,21.7,29.90,West,279,5.0,8.0,82,0.00,,,0.00,Wunderground v.1.15,2013-02-13 01:56:00,
2013-02-12 20:01:00,26.6,21.8,29.90,West,278,8.0,9.0,82,0.00,,,0.00,Wunderground v.1.15,2013-02-13 02:01:00,
2013-02-12 20:06:00,26.5,21.7,29.90,West,276,8.0,10.0,82,0.00,,,0.00,Wunderground v.1.15,2013-02-13 02:06:00,
2013-02-12 20:11:00,26.6,21.8,29.90,West,279,7.0,11.0,82,0.00,,,0.00,Wunderground v.1.15,2013-02-13 02:11:00,
2013-02-12 20:16:00,26.6,21.8,29.90,WNW,286,8.0,10.0,82,0.00,,,0.00,Wunderground v.1.15,2013-02-13 02:16:00,
2013-02-12 20:21:00,26.5,21.7,29.90,WNW,290,9.0,10.0,82,0.00,,,0.00,Wunderground v.1.15,2013-02-13 02:21:00,
2013-02-12 20:26:00,26.5,21.7,29.90,WNW,287,8.0,12.0,82,0.00,,,0.00,Wunderground v.1.15,2013-02-13 02:26:00,
2013-02-12 20:31:00,26.6,21.8,29.89,WNW,285,8.0,13.0,82,0.00,,,0.00,Wunderground v.1.15,2013-02-13 02:31:00,
2013-02-12 20:36:00,26.5,21.7,29.89,WNW,290,7.0,13.0,82,0.00,,,0.00,Wunderground v.1.15,2013-02-13 02:36:00,
2013-02-12 20:41:00,26.4,21.7,29.89,WNW,286,9.0,9.0,82,0.00,,,0.00,Wunderground v.1.15,2013-02-13 02:41:00,
2013-02-12 20:46:00,26.3,21.6,29.89,WNW,286,8.0,12.0,82,0.00,,,0.00,Wunderground v.1.15,2013-02-13 02:46:00,
2013-02-12 20:51:00,26.2,21.5,29.89,WNW,290,9.0,9.0,82,0.00,,,0.00,Wunderground v.1.15,2013-02-13 02:51:00,
2013-02-12 20:56:00,26.0,21.3,29.89,WNW,286,11.0,12.0,82,0.00,,,0.00,Wunderground v.1.15,2013-02-13 02:56:00,
2013-02-12 21:01:00,26.2,21.5,29.88,WNW,294,8.0,9.0,82,0.00,,,0.00,Wunderground v.1.15,2013-02-13 03:01:00,
2013-02-12 21:06:00,26.2,21.5,29.88,WNW,291,12.0,14.0,82,0.00,,,0.00,Wunderground v.1.15,2013-02-13 03:06:00,
2013-02-12 21:11:00,26.2,21.5,29.88,WNW,286,8.0,10.0,82,0.00,,,0.00,Wunderground v.1.15,2013-02-13 03:11:00,
2013-02-12 21:16:00,26.0,21.3,29.88,West,276,8.0,13.0,82,0.00,,,0.00,Wunderground v.1.15,2013-02-13 03:16:00,
2013-02-12 21:21:00,26.0,21.3,29.88,WNW,288,9.0,10.0,82,0.00,,,0.00,Wunderground v.1.15,2013-02-13 03:21:00,
2013-02-12 21:26:00,25.9,21.2,29.88,WNW,298,9.0,14.0,82,0.00,,,0.00,Wunderground v.1.15,2013-02-13 03:26:00,
2013-02-12 21:31:00,25.8,21.1,29.88,WNW,285,10.0,11.0,82,0.00,,,0.00,Wunderground v.1.15,2013-02-13 03:31:00,
2013-02-12 21:36:00,25.6,20.9,29.88,WNW,287,9.0,12.0,82,0.00,,,0.00,Wunderground v.1.15,2013-02-13 03:36:00,
2013-02-12 21:41:00,25.5,21.1,29.88,WNW,285,10.0,10.0,83,0.00,,,0.00,Wunderground v.1.15,2013-02-13 03:41:00,
2013-02-12 21:46:00,25.6,21.2,29.88,WNW,288,8.0,15.0,83,0.00,,,0.00,Wunderground v.1.15,2013-02-13 03:46:00,
2013-02-12 21:52:00,25.5,21.1,29.88,West,281,8.0,10.0,83,0.00,,,0.00,Wunderground v.1.15,2013-02-13 03:52:00,
2013-02-12 21:56:00,25.5,21.1,29.87,West,279,9.0,13.0,83,0.00,,,0.00,Wunderground v.1.15,2013-02-13 03:56:00,
2013-02-12 22:02:00,25.5,21.1,29.87,WNW,288,7.0,11.0,83,0.00,,,0.00,Wunderground v.1.15,2013-02-13 04:02:00,
2013-02-12 22:07:00,25.4,21.0,29.87,WNW,286,7.0,11.0,83,0.00,,,0.00,Wunderground v.1.15,2013-02-13 04:07:00,
2013-02-12 22:12:00,25.3,20.9,29.87,WNW,286,7.0,7.0,83,0.00,,,0.00,Wunderground v.1.15,2013-02-13 04:12:00,
2013-02-12 22:17:00,25.2,20.8,29.87,WNW,285,8.0,9.0,83,0.00,,,0.00,Wunderground v.1.15,2013-02-13 04:17:00,
2013-02-12 22:22:00,25.1,20.7,29.87,WNW,284,8.0,8.0,83,0.00,,,0.00,Wunderground v.1.15,2013-02-13 04:22:00,
2013-02-12 22:27:00,25.2,20.8,29.87,WNW,290,11.0,11.0,83,0.00,,,0.00,Wunderground v.1.15,2013-02-13 04:27:00,
2013-02-12 22:32:00,25.4,21.0,29.87,WNW,286,7.0,11.0,83,0.00,,,0.00,Wunderground v.1.15,2013-02-13 04:32:00,
2013-02-12 22:37:00,25.6,21.2,29.87,WNW,284,10.0,14.0,83,0.00,,,0.00,Wunderground v.1.15,2013-02-13 04:37:00,
2013-02-12 22:42:00,25.4,20.7,29.87,WNW,286,6.0,9.0,82,0.00,,,0.00,Wunderground v.1.15,2013-02-13 04:42:00,
2013-02-12 22:47:00,25.3,20.6,29.87,WNW,293,9.0,11.0,82,0.00,,,0.00,Wunderground v.1.15,2013-02-13 04:47:00,
2013-02-12 22:52:00,25.2,20.5,29.87,WNW,291,9.0,11.0,82,0.00,,,0.00,Wunderground v.1.15,2013-02-13 04:52:00,
2013-02-12 22:57:00,24.9,20.5,29.88,WNW,294,5.0,12.0,83,0.00,,,0.00,Wunderground v.1.15,2013-02-13 04:57:00,
2013-02-12 23:00:00,24.7,20.3,29.88,WNW,294,10.0,12.0,83,0.00,,,0.00,Wunderground v.1.15,2013-02-13 05:00:00,
2013-02-12 23:05:00,24.6,20.2,29.88,WNW,298,7.0,10.0,83,0.00,,,0.00,Wunderground v.1.15,2013-02-13 05:05:00,
2013-02-12 23:10:00,24.2,19.8,29.88,WNW,298,5.0,10.0,83,0.00,,,0.00,Wunderground v.1.15,2013-02-13 05:10:00,
2013-02-12 23:15:00,23.9,19.5,29.87,WNW,297,6.0,8.0,83,0.00,,,0.00,Wunderground v.1.15,2013-02-13 05:15:00,
2013-02-12 23:20:00,23.6,19.5,29.87,WNW,296,4.0,8.0,84,0.00,,,0.00,Wunderground v.1.15,2013-02-13 05:20:00,
2013-02-12 23:25:00,23.5,19.4,29.87,WNW,296,0.0,6.0,84,0.00,,,0.00,Wunderground v.1.15,2013-02-13 05:25:00,
2013-02-12 23:30:00,23.2,19.1,29.87,WNW,296,0.0,6.0,84,0.00,,,0.00,Wunderground v.1.15,2013-02-13 05:30:00,
2013-02-12 23:35:00,23.1,19.0,29.87,WNW,296,2.0,5.0,84,0.00,,,0.00,Wunderground v.1.15,2013-02-13 05:35:00,
2013-02-12 23:40:00,23.1,19.3,29.87,WNW,296,4.0,6.0,85,0.00,,,0.00,Wunderground v.1.15,2013-02-13 05:40:00,
2013-02-12 23:45:00,23.1,19.0,29.87,WNW,296,0.0,5.0,84,0.00,,,0.00,Wunderground v.1.15,2013-02-13 05:45:00,
2013-02-12 23:50:00,23.1,19.3,29.87,WNW,296,3.0,5.0,85,0.00,,,0.00,Wunderground v.1.15,2013-02-13 05:50:00,
2013-02-12 23:55:00,23.1,19.3,29.87,WNW,296,2.0,7.0,85,0.00,,,0.00,Wunderground v.1.15,2013-02-13 05:55:00,